Regional Weather Roundup
Issued by NWS Jackson, KY

Home | Current Version | Previous Version | Text Only | Print | Product List | Glossary Off
Versions: 1 2 3 4 5 6 7 8 9 10 11 12 13 14 15 16 17 18 19 20 21 22 23 24 25 26 27 28 29 30 31 32 33 34 35 36 37 38 39 40 41 42 43 44 45 46 47 48 49 50

000
ASUS43 KJKL 020410
RWRJKL

EAST KENTUCKY HOURLY WEATHER ROUNDUP
NATIONAL WEATHER SERVICE JACKSON KY
1200 AM EDT WED SEP 02 2015

NOTE: "FAIR" INDICATES FEW OR NO CLOUDS BELOW 12,000 FEET WITH
NO SIGNIFICANT WEATHER AND/OR OBSTRUCTIONS TO VISIBILITY.

* THESE REPORTS ARE NOT UNDER NWS QUALITY CONTROL AND MAY NOT
  REPORT WEATHER SUCH AS PRECIPITATION AND FOG.

KYZ079-080-083-085-087-088-110-112-115-119-120-020500
...EASTERN KENTUCKY...

CITY           SKY/WX    TMP DP  RH WIND       PRES   REMARKS
JACKSON        PTCLDY    72  64  76 CALM      30.15S
LONDON         CLEAR     71  66  84 CALM      30.15S
SOMERSET*      CLEAR     68  68 100 CALM      30.15S
MONTICELLO*    CLEAR     67  67 100 CALM      30.16F
MIDDLESBORO*   CLEAR     68  68  99 CALM      30.16S
HAZARD APT*    CLEAR     70  70 100 CALM      30.15S FOG
BLACK MTN*       N/A     66  63  88 CALM        N/A
PIKEVILLE APT* CLEAR     73  68  83 CALM      30.16S
BIG SANDY*     MOCLDY    71  69  92 CALM      30.14S
MOREHEAD APT*  PTCLDY    73  68  83 CALM      30.15S
$$

KYZ035-036-041-042-044-050-067-078-099-020500
...CENTRAL KENTUCKY...

CITY           SKY/WX    TMP DP  RH WIND       PRES   REMARKS
MT STERLING*   PTCLDY    70  68  94 CALM      30.15S
FLEMING/MASON* CLEAR     72  66  83 CALM      30.15R
DANVILLE*      CLEAR     68  64  88 CALM      30.15F
RICHMOND*      CLEAR     68  64  88 CALM      30.14R
LEXINGTON      CLEAR     73  66  78 CALM      30.14R
FRANKFORT      CLEAR     70  66  87 CALM      30.12S
$$

KYZ091>093-OHZ055-061-077-WVZ005-015-034-035-042-020500
...SOUTHERN OHIO/WEST VIRGINIA...

CITY           SKY/WX    TMP DP  RH WIND       PRES   REMARKS
COVINGTON      PTCLDY    69  66  90 CALM      30.12S FOG
COLUMBUS       MOCLDY    76  66  71 NW3       30.11R
DAYTON         PTCLDY    71  67  87 SW3       30.13S
WILMINGTON     PTCLDY    67  64  90 CALM      30.13R FOG
HUNTINGTON       N/A     71  69  93 CALM      30.12S
CHARLESTON     PTCLDY    71  67  87 CALM      30.12S
PINEVILLE*     PTCLDY    68  68 100 MISG      30.22S FOG
BECKLEY        PTCLDY    67  63  87 CALM      30.21F
BLUEFIELD      PTCLDY    71  63  75 CALM      30.24S
$$

VAZ002-007-008-TNZ017-027-036-066-071-020500
...SOUTHWEST VIRGINIA/EAST TENNESSEE...

CITY           SKY/WX    TMP DP  RH WIND       PRES   REMARKS
WISE*          PTCLDY    68  66  94 CALM      30.24R
JONESVILLE*    PTCLDY    68  66  94 CALM      30.18S
ABINGDON*      PTCLDY    71  65  82 CALM      30.18F
BRISTOL        PTCLDY    70  67  90 CALM      30.15S
KNOXVILLE      MOCLDY    75  70  84 CALM      30.11S
OAK RIDGE      PTCLDY    72  68  87 CALM      30.14R
CROSSVILLE     CLEAR     70  67  90 CALM      30.19S
NASHVILLE      PTCLDY    75  67  76 CALM      30.12R
$$

...KEY TO REMARKS...
VSB - VISIBILITY IN MILES
WCI - WIND CHILL INDEX
HX  - HEAT INDEX

$$


USA.gov is the U.S. government's official web portal to all federal, state and local government web resources and services.